Kosmos-2412

operational
NORAD ID: 28510 Int'l Des: 2004-053 Owner: KVR/IACG Country: RU Constellation: GLONASS
MEOCIRCULAR

About Kosmos-2412

Description loading...

Live Position

Loading 3D Globe...

Upcoming Passes

Altitude History

Altitude vs Time

uPlot chart will show altitude changes over time

Two-Line Element Set

1 28510U 04053C 26101.84783264 .00000015 00000-0 00000+0 0 9995
2 28510 64.1765 62.6551 0007920 255.0162 324.2002 2.13103148165706
Epoch: Apr 11, 2026 • Age: 24 hours

Current Status

Altitude 19131.4 km
Velocity 3.96 km/s
Sub-Earth Point -58.35°S, 155.23°E
Launch Date Dec 26, 2004
Age 21.2 years
Type other

Technical Details

Classification Payload
Mass 1450.00 kg
Dry Mass 1200.00 kg
Total Mass 1450.00 kg
Length 4.00 m
Diameter 1.50 m
Span 7.80 m
Shape Cyl + Ant + 2 Pan
Manufacturer POL
Bus Type Uragan
Phase Status In Orbit
Owner/State KVR/IACG/RU

Large Constellations

Loading constellations...